| time (UTC) | temp F | wind direction | speed MPH | gust MPH | rain 1hr in | rain 24hr in | rain mn in | humidity % | barometer mb |
| 20260504185048 | 78 | 144 | 7.0 | 13.0 | 0.00 | 0.00 | 0.00 | 61 | 1013.6 |
| 20260504184556 | 77 | 160 | 6.0 | 15.0 | 0.00 | 0.00 | 0.00 | 63 | 1013.6 |
| 20260504184048 | 77 | 213 | 6.0 | 15.0 | 0.00 | 0.00 | 0.00 | 63 | 1013.6 |
| 20260504183545 | 78 | 173 | 5.0 | 13.0 | 0.00 | 0.00 | 0.00 | 62 | 1013.8 |
| 20260504183100 | 78 | 180 | 7.0 | 13.0 | 0.00 | 0.00 | 0.00 | 63 | 1013.9 |
| 20260504182547 | 77 | 146 | 6.0 | 13.0 | 0.00 | 0.00 | 0.00 | 65 | 1013.9 |
| 20260504182048 | 77 | 184 | 5.0 | 12.0 | 0.00 | 0.00 | 0.00 | 65 | 1014.0 |
| 20260504181550 | 77 | 194 | 6.0 | 15.0 | 0.00 | 0.00 | 0.00 | 65 | 1014.0 |
| 20260504181048 | 77 | 163 | 7.0 | 15.0 | 0.00 | 0.00 | 0.00 | 64 | 1014.0 |
| 20260504180548 | 78 | 182 | 7.0 | 15.0 | 0.00 | 0.00 | 0.00 | 64 | 1014.1 |
| 20260504180130 | 77 | 198 | 6.0 | 18.0 | 0.00 | 0.00 | 0.00 | 62 | 1014.0 |
| 20260504175547 | 77 | 170 | 6.0 | 18.0 | 0.00 | 0.00 | 0.00 | 63 | 1014.1 |
| 20260504175047 | 77 | 201 | 8.0 | 18.0 | 0.00 | 0.00 | 0.00 | 65 | 1014.3 |
| 20260504174551 | 77 | 193 | 7.0 | 14.0 | 0.00 | 0.00 | 0.00 | 64 | 1014.5 |
| 20260504174047 | 75 | 143 | 8.0 | 14.0 | 0.00 | 0.00 | 0.00 | 67 | 1014.4 |
| 20260504173547 | 75 | 171 | 6.0 | 15.0 | 0.00 | 0.00 | 0.00 | 67 | 1014.5 |
| 20260504173057 | 75 | 177 | 6.0 | 15.0 | 0.00 | 0.00 | 0.00 | 66 | 1014.6 |
| 20260504172550 | 76 | 199 | 8.0 | 15.0 | 0.00 | 0.00 | 0.00 | 66 | 1014.6 |
| 20260504172051 | 75 | 156 | 7.0 | 15.0 | 0.00 | 0.00 | 0.00 | 68 | 1014.6 |
| 20260504171557 | 75 | 173 | 6.0 | 15.0 | 0.00 | 0.00 | 0.00 | 67 | 1014.9 |
| 20260504171052 | 75 | 176 | 5.0 | 11.0 | 0.00 | 0.00 | 0.00 | 68 | 1015.1 |
| 20260504170551 | 74 | 190 | 6.0 | 11.0 | 0.00 | 0.00 | 0.00 | 71 | 1015.3 |
| 20260504151050 | 68 | 190 | 5.0 | 13.0 | 0.00 | 0.00 | 0.00 | 80 | 1015.7 |
| 20260504150550 | 67 | 159 | 5.0 | 14.0 | 0.00 | 0.00 | 0.00 | 80 | 1015.7 |
| 20260504141047 | 64 | 163 | 3.0 | 7.0 | 0.00 | 0.00 | 0.00 | 82 | 1015.7 |
| 20260504140547 | 64 | 237 | 4.0 | 8.0 | 0.00 | 0.00 | 0.00 | 82 | 1015.8 |
| 20260504130547 | 61 | 146 | 2.0 | 4.0 | 0.00 | 0.00 | 0.00 | 85 | 1015.8 |
| 20260504120103 | 59 | 151 | 2.0 | 5.0 | 0.00 | 0.00 | 0.00 | 86 | 1015.5 |
| 20260504110547 | 59 | 155 | 1.0 | 5.0 | 0.00 | 0.00 | 0.00 | 85 | 1015.5 |
| 20260504100550 | 59 | 150 | 1.0 | 5.0 | 0.00 | 0.00 | 0.00 | 85 | 1015.7 |
| 20260504081553 | 61 | 169 | 2.0 | 10.0 | 0.00 | 0.00 | 0.00 | 81 | 1016.2 |
| 20260504081050 | 61 | 175 | 3.0 | 10.0 | 0.00 | 0.00 | 0.00 | 80 | 1016.2 |
| 20260504080550 | 61 | 204 | 2.0 | 7.0 | 0.00 | 0.00 | 0.00 | 80 | 1016.3 |
| 20260504060103 | 63 | 169 | 2.0 | 5.0 | 0.00 | 0.00 | 0.00 | 72 | 1017.9 |
| 20260504050547 | 64 | 167 | 3.0 | 8.0 | 0.00 | 0.00 | 0.00 | 69 | 1018.2 |
| 20260504050105 | 64 | 157 | 3.0 | 8.0 | 0.00 | 0.00 | 0.00 | 69 | 1018.2 |
| 20260504045546 | 64 | 168 | 3.0 | 9.0 | 0.00 | 0.00 | 0.00 | 68 | 1018.2 |
| 20260504045048 | 64 | 153 | 4.0 | 9.0 | 0.00 | 0.00 | 0.00 | 68 | 1018.2 |
| 20260504044553 | 64 | 167 | 4.0 | 10.0 | 0.00 | 0.00 | 0.00 | 67 | 1018.3 |
| 20260504044048 | 65 | 169 | 4.0 | 12.0 | 0.00 | 0.00 | 0.00 | 66 | 1018.2 |
| 20260504043553 | 65 | 161 | 4.0 | 12.0 | 0.00 | 0.00 | 0.00 | 66 | 1018.4 |
| 20260504043056 | 65 | 153 | 4.0 | 10.0 | 0.00 | 0.00 | 0.00 | 65 | 1018.2 |
| 20260504042550 | 65 | 141 | 3.0 | 10.0 | 0.00 | 0.00 | 0.00 | 65 | 1018.5 |
| 20260504042049 | 65 | 164 | 4.0 | 9.0 | 0.00 | 0.00 | 0.00 | 65 | 1018.5 |
| 20260504041551 | 65 | 146 | 3.0 | 11.0 | 0.00 | 0.00 | 0.00 | 65 | 1018.4 |
| 20260504041050 | 65 | 140 | 4.0 | 11.0 | 0.00 | 0.00 | 0.00 | 64 | 1018.5 |
| 20260504040550 | 65 | 165 | 4.0 | 10.0 | 0.00 | 0.00 | 0.00 | 64 | 1018.4 |
| 20260504035551 | 65 | 129 | 4.0 | 12.0 | 0.00 | 0.00 | 0.00 | 63 | 1018.6 |
| 20260504035053 | 65 | 130 | 3.0 | 9.0 | 0.00 | 0.00 | 0.00 | 63 | 1018.5 |
| 20260504034555 | 65 | 171 | 4.0 | 9.0 | 0.00 | 0.00 | 0.00 | 63 | 1018.4 |
| 20260504034050 | 65 | 133 | 4.0 | 9.0 | 0.00 | 0.00 | 0.00 | 63 | 1018.5 |
| 20260504033549 | 65 | 169 | 3.0 | 8.0 | 0.00 | 0.00 | 0.00 | 63 | 1018.4 |
| 20260504033058 | 65 | 173 | 3.0 | 8.0 | 0.00 | 0.00 | 0.00 | 63 | 1018.5 |
| 20260504032548 | 64 | 161 | 2.0 | 5.0 | 0.00 | 0.00 | 0.00 | 63 | 1018.5 |
| 20260504032053 | 64 | 161 | 1.0 | 4.0 | 0.00 | 0.00 | 0.00 | 63 | 1018.4 |
| 20260504031604 | 64 | 137 | 1.0 | 4.0 | 0.00 | 0.00 | 0.00 | 63 | 1018.2 |
| 20260504031047 | 63 | 136 | 1.0 | 3.0 | 0.00 | 0.00 | 0.00 | 65 | 1018.3 |
| 20260504030550 | 62 | 0 | 0.0 | 1.0 | 0.00 | 0.00 | 0.00 | 67 | 1018.3 |
| 20260504030057 | 63 | 0 | 0.0 | 1.0 | 0.00 | 0.00 | 0.00 | 65 | 1018.4 |
| 20260504025550 | 63 | 0 | 0.0 | 1.0 | 0.00 | 0.00 | 0.00 | 65 | 1018.4 |
| 20260504025050 | 62 | 0 | 0.0 | 0.0 | 0.00 | 0.00 | 0.00 | 65 | 1018.4 |
| 20260504024559 | 62 | 0 | 0.0 | 1.0 | 0.00 | 0.00 | 0.00 | 65 | 1018.2 |
| 20260504024054 | 63 | 0 | 0.0 | 1.0 | 0.00 | 0.00 | 0.00 | 65 | 1018.3 |
| 20260504023550 | 63 | 0 | 0.0 | 1.0 | 0.00 | 0.00 | 0.00 | 65 | 1018.2 |
| 20260504023055 | 62 | 0 | 0.0 | 0.0 | 0.00 | 0.00 | 0.00 | 66 | 1018.2 |
| 20260504022548 | 63 | 0 | 0.0 | 0.0 | 0.00 | 0.00 | 0.00 | 66 | 1018.1 |
| 20260504022051 | 63 | 0 | 0.0 | 0.0 | 0.00 | 0.00 | 0.00 | 64 | 1018.2 |
| 20260504021603 | 62 | 0 | 0.0 | 0.0 | 0.00 | 0.00 | 0.00 | 66 | 1018.2 |
| 20260504021048 | 63 | 0 | 0.0 | 0.0 | 0.00 | 0.00 | 0.00 | 65 | 1018.2 |
| 20260504020550 | 63 | 0 | 0.0 | 0.0 | 0.00 | 0.00 | 0.00 | 65 | 1018.3 |
| 20260504020119 | 63 | 0 | 0.0 | 0.0 | 0.00 | 0.00 | 0.00 | 64 | 1018.3 |
| 20260504015551 | 63 | 0 | 0.0 | 0.0 | 0.00 | 0.00 | 0.00 | 63 | 1018.1 |
| 20260504015051 | 63 | 0 | 0.0 | 0.0 | 0.00 | 0.00 | 0.00 | 62 | 1018.1 |
| 20260504014606 | 64 | 0 | 0.0 | 0.0 | 0.00 | 0.00 | 0.00 | 62 | 1018.0 |
| 20260504014046 | 64 | 0 | 0.0 | 0.0 | 0.00 | 0.00 | 0.00 | 62 | 1018.0 |
| 20260504013547 | 64 | 0 | 0.0 | 0.0 | 0.00 | 0.00 | 0.00 | 61 | 1017.9 |
| 20260504013052 | 65 | 0 | 0.0 | 0.0 | 0.00 | 0.00 | 0.00 | 60 | 1017.9 |
| 20260504012550 | 65 | 0 | 0.0 | 0.0 | 0.00 | 0.00 | 0.00 | 58 | 1017.9 |
| 20260504012048 | 66 | 0 | 0.0 | 0.0 | 0.00 | 0.00 | 0.00 | 58 | 1017.9 |
| 20260504011554 | 67 | 0 | 0.0 | 0.0 | 0.00 | 0.00 | 0.00 | 56 | 1017.9 |
| 20260504011048 | 68 | 0 | 0.0 | 2.0 | 0.00 | 0.00 | 0.00 | 55 | 1017.8 |
| 20260504010547 | 68 | 0 | 0.0 | 2.0 | 0.00 | 0.00 | 0.00 | 53 | 1017.7 |
| 20260504010056 | 69 | 0 | 0.0 | 2.0 | 0.00 | 0.00 | 0.00 | 52 | 1017.6 |
| 20260504005549 | 69 | 0 | 0.0 | 3.0 | 0.00 | 0.00 | 0.00 | 53 | 1017.8 |
| 20260504005048 | 70 | 148 | 0.0 | 4.0 | 0.00 | 0.00 | 0.00 | 49 | 1017.7 |
| 20260504004554 | 71 | 155 | 1.0 | 6.0 | 0.00 | 0.00 | 0.00 | 48 | 1017.8 |
| 20260504004046 | 71 | 167 | 2.0 | 6.0 | 0.00 | 0.00 | 0.00 | 47 | 1017.8 |
| 20260504003547 | 72 | 178 | 3.0 | 8.0 | 0.00 | 0.00 | 0.00 | 46 | 1017.7 |
| 20260504003054 | 72 | 138 | 4.0 | 8.0 | 0.00 | 0.00 | 0.00 | 46 | 1017.8 |
| 20260504002549 | 72 | 176 | 3.0 | 8.0 | 0.00 | 0.00 | 0.00 | 46 | 1017.7 |
| 20260504002048 | 72 | 173 | 2.0 | 7.0 | 0.00 | 0.00 | 0.00 | 47 | 1017.9 |
| 20260504001559 | 72 | 132 | 2.0 | 8.0 | 0.00 | 0.00 | 0.00 | 45 | 1018.0 |
| 20260504001047 | 73 | 144 | 3.0 | 9.0 | 0.00 | 0.00 | 0.00 | 44 | 1018.1 |
| 20260504000547 | 73 | 185 | 4.0 | 9.0 | 0.00 | 0.00 | 0.00 | 43 | 1018.1 |
| 20260504000058 | 73 | 148 | 3.0 | 8.0 | 0.00 | 0.00 | 0.00 | 44 | 1018.1 |
| 20260503235548 | 74 | 161 | 4.0 | 9.0 | 0.00 | 0.00 | 0.00 | 43 | 1018.2 |
| 20260503235048 | 74 | 138 | 3.0 | 9.0 | 0.00 | 0.00 | 0.00 | 43 | 1018.2 |
| 20260503234552 | 74 | 165 | 4.0 | 9.0 | 0.00 | 0.00 | 0.00 | 43 | 1018.2 |
| 20260503234049 | 74 | 148 | 4.0 | 8.0 | 0.00 | 0.00 | 0.00 | 42 | 1018.2 |
| 20260503233548 | 74 | 181 | 4.0 | 9.0 | 0.00 | 0.00 | 0.00 | 42 | 1018.2 |
| 20260503233049 | 75 | 146 | 3.0 | 10.0 | 0.00 | 0.00 | 0.00 | 41 | 1018.2 |
| 20260503232548 | 75 | 174 | 5.0 | 11.0 | 0.00 | 0.00 | 0.00 | 42 | 1018.1 |
| 20260503232047 | 76 | 146 | 4.0 | 11.0 | 0.00 | 0.00 | 0.00 | 40 | 1018.1 |
| 20260503231601 | 75 | 101 | 4.0 | 12.0 | 0.00 | 0.00 | 0.00 | 41 | 1018.1 |
| 20260503231048 | 75 | 166 | 6.0 | 12.0 | 0.00 | 0.00 | 0.00 | 40 | 1018.1 |
| 20260503230548 | 76 | 129 | 4.0 | 10.0 | 0.00 | 0.00 | 0.00 | 39 | 1018.1 |
| 20260503230104 | 76 | 155 | 3.0 | 11.0 | 0.00 | 0.00 | 0.00 | 40 | 1018.2 |
| 20260503225546 | 76 | 166 | 4.0 | 12.0 | 0.00 | 0.00 | 0.00 | 38 | 1018.0 |
| 20260503225048 | 76 | 146 | 6.0 | 12.0 | 0.00 | 0.00 | 0.00 | 38 | 1018.1 |
| 20260503224600 | 76 | 130 | 4.0 | 10.0 | 0.00 | 0.00 | 0.00 | 38 | 1018.2 |
| 20260503224047 | 77 | 169 | 4.0 | 11.0 | 0.00 | 0.00 | 0.00 | 37 | 1018.1 |
| 20260503223617 | 77 | 131 | 6.0 | 12.0 | 0.00 | 0.00 | 0.00 | 40 | 1018.2 |
| 20260503223059 | 76 | 136 | 5.0 | 12.0 | 0.00 | 0.00 | 0.00 | 39 | 1018.4 |
| 20260503222546 | 75 | 104 | 5.0 | 12.0 | 0.00 | 0.00 | 0.00 | 39 | 1018.4 |
| 20260503222048 | 76 | 119 | 5.0 | 12.0 | 0.00 | 0.00 | 0.00 | 37 | 1018.4 |
| 20260503221550 | 77 | 113 | 5.0 | 12.0 | 0.00 | 0.00 | 0.00 | 37 | 1018.6 |
| 20260503221047 | 77 | 144 | 4.0 | 10.0 | 0.00 | 0.00 | 0.00 | 37 | 1018.6 |
| 20260503220548 | 76 | 132 | 5.0 | 10.0 | 0.00 | 0.00 | 0.00 | 39 | 1018.9 |
| 20260503220054 | 76 | 111 | 4.0 | 12.0 | 0.00 | 0.00 | 0.00 | 38 | 1018.9 |
| 20260503215547 | 77 | 135 | 5.0 | 12.0 | 0.00 | 0.00 | 0.00 | 38 | 1018.9 |
| 20260503215047 | 77 | 107 | 6.0 | 12.0 | 0.00 | 0.00 | 0.00 | 38 | 1019.2 |
| 20260503214557 | 78 | 198 | 5.0 | 12.0 | 0.00 | 0.00 | 0.00 | 36 | 1019.3 |
| 20260503214048 | 77 | 162 | 4.0 | 12.0 | 0.00 | 0.00 | 0.00 | 38 | 1019.4 |
| 20260503213547 | 77 | 147 | 6.0 | 12.0 | 0.00 | 0.00 | 0.00 | 38 | 1019.4 |
| 20260503213101 | 78 | 136 | 4.0 | 13.0 | 0.00 | 0.00 | 0.00 | 37 | 1019.4 |
| 20260503212547 | 77 | 190 | 5.0 | 14.0 | 0.00 | 0.00 | 0.00 | 36 | 1019.5 |
| 20260503212047 | 78 | 165 | 6.0 | 14.0 | 0.00 | 0.00 | 0.00 | 38 | 1019.5 |
| 20260503211607 | 77 | 106 | 3.0 | 11.0 | 0.00 | 0.00 | 0.00 | 35 | 1019.6 |
| 20260503211049 | 77 | 137 | 5.0 | 11.0 | 0.00 | 0.00 | 0.00 | 40 | 1019.8 |
| 20260503210547 | 78 | 140 | 4.0 | 13.0 | 0.00 | 0.00 | 0.00 | 39 | 1019.8 |
| 20260503210055 | 77 | 182 | 6.0 | 13.0 | 0.00 | 0.00 | 0.00 | 38 | 1020.0 |
| 20260503205548 | 77 | 166 | 4.0 | 11.0 | 0.00 | 0.00 | 0.00 | 39 | 1020.0 |
| 20260503205048 | 77 | 184 | 4.0 | 12.0 | 0.00 | 0.00 | 0.00 | 43 | 1020.2 |
| 20260503204555 | 77 | 143 | 5.0 | 12.0 | 0.00 | 0.00 | 0.00 | 40 | 1020.3 |
| 20260503204048 | 78 | 229 | 4.0 | 12.0 | 0.00 | 0.00 | 0.00 | 41 | 1020.4 |
| 20260503203547 | 77 | 151 | 4.0 | 11.0 | 0.00 | 0.00 | 0.00 | 40 | 1020.5 |
| 20260503203056 | 76 | 174 | 6.0 | 17.0 | 0.00 | 0.00 | 0.00 | 40 | 1020.7 |
| 20260503202547 | 77 | 105 | 5.0 | 17.0 | 0.00 | 0.00 | 0.00 | 41 | 1020.6 |
| 20260503202049 | 76 | 177 | 3.0 | 12.0 | 0.00 | 0.00 | 0.00 | 38 | 1020.8 |
| 20260503201554 | 77 | 126 | 6.0 | 12.0 | 0.00 | 0.00 | 0.00 | 38 | 1021.1 |
| 20260503201050 | 77 | 162 | 4.0 | 10.0 | 0.00 | 0.00 | 0.00 | 40 | 1020.9 |
| 20260503200547 | 77 | 190 | 3.0 | 12.0 | 0.00 | 0.00 | 0.00 | 41 | 1021.0 |
| 20260503200101 | 77 | 161 | 5.0 | 12.0 | 0.00 | 0.00 | 0.00 | 44 | 1020.8 |
| 20260503195548 | 76 | 192 | 4.0 | 12.0 | 0.00 | 0.00 | 0.00 | 44 | 1021.0 |
| 20260503195048 | 77 | 188 | 3.0 | 12.0 | 0.00 | 0.00 | 0.00 | 40 | 1021.3 |
| 20260503194601 | 76 | 165 | 5.0 | 13.0 | 0.00 | 0.00 | 0.00 | 39 | 1021.3 |
| 20260503194047 | 76 | 139 | 5.0 | 13.0 | 0.00 | 0.00 | 0.00 | 37 | 1021.3 |
| 20260503193547 | 77 | 197 | 6.0 | 17.0 | 0.00 | 0.00 | 0.00 | 39 | 1021.5 |
| 20260503193102 | 76 | 169 | 7.0 | 17.0 | 0.00 | 0.00 | 0.00 | 38 | 1021.4 |
| 20260503192548 | 77 | 102 | 4.0 | 14.0 | 0.00 | 0.00 | 0.00 | 40 | 1021.5 |
| 20260503192048 | 76 | 165 | 6.0 | 14.0 | 0.00 | 0.00 | 0.00 | 42 | 1021.5 |
| 20260503191602 | 76 | 165 | 6.0 | 13.0 | 0.00 | 0.00 | 0.00 | 39 | 1021.5 |
| 20260503191049 | 77 | 172 | 2.0 | 11.0 | 0.00 | 0.00 | 0.00 | 39 | 1021.7 |
| 20260503190547 | 77 | 91 | 4.0 | 11.0 | 0.00 | 0.00 | 0.00 | 36 | 1021.8 |
| 20260503190056 | 76 | 203 | 3.0 | 14.0 | 0.00 | 0.00 | 0.00 | 39 | 1021.8 |
| 20260503185548 | 76 | 173 | 6.0 | 14.0 | 0.00 | 0.00 | 0.00 | 35 | 1021.9 |